Atlanta, GA

8:23 PM EST on December 05, 2019 (GMT -0500)
The Hartsfield Atlanta International

Weather History for KATL - October, 2019

Change the Weather History Date:

Friday, October 25, 2019

  Actual Average Record
Temperature  
Mean Temperature 66 °F 61 °F  
Max Temperature 72 °F 70 °F 82 °F (1931)
Min Temperature 60 °F 51 °F 29 °F (1965)
Degree Days  
Heating Degree Days 0 6  
Month to date heating degree days 42 79  
Since 1 July heating degree days 42 90  
Cooling Degree Days 1 1  
Month to date cooling degree days 154 61  
Year to date cooling degree days 2631 1866  
Growing Degree Days 16 (Base 50)    
Moisture  
Dew Point 56 °F    
Average Humidity 71    
Maximum Humidity 93    
Minimum Humidity 52    
Precipitation  
Precipitation 0.19 in 0.10 in 2.66 in (1977)
Month to date precipitation 2.50 2.82  
Year to date precipitation 34.83 41.12  
Sea Level Pressure  
Sea Level Pressure 30.15 in    
Wind  
Wind Speed 10 mph ()    
Max Wind Speed 17 mph    
Max Gust Speed 22 mph    
Visibility 9.2 miles    
Events Rain    
T = Trace of Precipitation, MM = Missing Value Source: Averaged Metar Reports

Daily Weather History Graph

Daily Weather History Graph

Search for Another Location

Airport or City:

Astronomy

Oct. 25, 2019 Rise Set
Actual Time 7:50 AM EDT 6:52 PM EDT
Civil Twilight 7:25 AM EDT 7:18 PM EDT
Nautical Twilight 6:55 AM EDT 7:47 PM EDT
Astronomical Twilight 6:26 AM EDT 8:16 PM EDT
Moon 4:45 AM EDT (10/25) 5:42 PM EDT (10/25)
Length of Visible Light 11h 53m
Length of Day
11h 02m
Waning Crescent, 9% of the Moon is Illuminated
Oct 25
Waning Crescent
Oct 27
New
Nov 4
First Quarter
Nov 12
Full
Nov 19
Last Quarter

Hourly Weather History & Observations

Time (EDT) Temp. Dew Point Humidity Pressure Visibility Wind Dir Wind Speed Gust Speed Precip Events Conditions
12:52 AM 63.0 °F 45.0 °F 52% 30.22 in 10.0 mi East 9.2 mph - N/A   Overcast
1:50 AM 62.6 °F 46.4 °F 55% 30.23 in 10.0 mi East 9.2 mph - N/A   Overcast
1:52 AM 63.0 °F 46.0 °F 54% 30.22 in 10.0 mi East 9.2 mph - N/A   Overcast
2:52 AM 63.0 °F 46.9 °F 56% 30.21 in 10.0 mi East 11.5 mph - N/A   Overcast
3:52 AM 62.1 °F 48.0 °F 60% 30.19 in 10.0 mi East 12.7 mph - 0.00 in   Overcast
4:52 AM 62.1 °F 48.0 °F 60% 30.19 in 10.0 mi East 11.5 mph - N/A   Overcast
5:12 AM 62.1 °F 48.9 °F 62% 30.20 in 10.0 mi East 11.5 mph - N/A   Overcast
5:52 AM 63.0 °F 48.9 °F 60% 30.20 in 10.0 mi ENE 11.5 mph - N/A   Overcast
6:36 AM 62.1 °F 48.9 °F 62% 30.20 in 10.0 mi East 11.5 mph - N/A   Overcast
6:52 AM 62.1 °F 48.9 °F 62% 30.19 in 10.0 mi East 12.7 mph - N/A   Overcast
7:32 AM 62.1 °F 50.0 °F 65% 30.20 in 10.0 mi East 11.5 mph - N/A   Overcast
7:48 AM 60.8 °F 51.8 °F 72% 30.20 in 10.0 mi East 10.4 mph - N/A   Overcast
7:52 AM 62.1 °F 51.1 °F 67% 30.19 in 10.0 mi East 12.7 mph - N/A   Overcast
8:35 AM 62.1 °F 52.0 °F 70% 30.20 in 10.0 mi East 13.8 mph - N/A   Mostly Cloudy
8:52 AM 62.1 °F 52.0 °F 70% 30.19 in 10.0 mi East 15.0 mph - N/A   Mostly Cloudy
9:52 AM 63.0 °F 54.0 °F 72% 30.21 in 10.0 mi East 10.4 mph - N/A   Overcast
10:52 AM 64.9 °F 55.9 °F 73% 30.18 in 10.0 mi East 13.8 mph - N/A   Overcast
11:52 AM 66.0 °F 55.9 °F 70% 30.18 in 10.0 mi East 12.7 mph - N/A   Overcast
12:15 PM 68.0 °F 57.9 °F 70% 30.17 in 10.0 mi East 11.5 mph - N/A   Overcast
12:52 PM 68.0 °F 57.9 °F 70% 30.14 in 10.0 mi East 13.8 mph - N/A   Overcast
1:52 PM 68.0 °F 59.0 °F 73% 30.12 in 10.0 mi ESE 9.2 mph - N/A   Overcast
2:52 PM 69.1 °F 60.1 °F 73% 30.09 in 10.0 mi ESE 10.4 mph - N/A   Overcast
3:52 PM 71.1 °F 62.1 °F 73% 30.07 in 10.0 mi ESE 10.4 mph - N/A   Overcast
4:02 PM 71.1 °F 62.1 °F 73% 30.08 in 10.0 mi ESE 10.4 mph - N/A   Overcast
4:52 PM 72.0 °F 62.1 °F 71% 30.07 in 10.0 mi ESE 9.2 mph - N/A   Overcast
5:52 PM 72.0 °F 63.0 °F 73% 30.07 in 10.0 mi East 8.1 mph - N/A   Overcast
6:52 PM 70.0 °F 62.1 °F 76% 30.07 in 10.0 mi East 15.0 mph - N/A   Overcast
7:52 PM 69.1 °F 61.0 °F 75% 30.08 in 10.0 mi East 15.0 mph - N/A   Overcast
8:52 PM 68.0 °F 61.0 °F 78% 30.08 in 10.0 mi East 12.7 mph - N/A   Overcast
9:52 PM 68.0 °F 62.1 °F 81% 30.08 in 9.0 mi East 6.9 mph - 0.00 in Rain Light Rain
10:05 PM 66.9 °F 63.0 °F 87% 30.10 in 3.0 mi East 8.1 mph - 0.01 in Rain Light Rain
10:19 PM 66.9 °F 63.0 °F 87% 30.11 in 2.5 mi ESE 8.1 mph - 0.04 in Rain Rain
10:31 PM 66.9 °F 64.0 °F 90% 30.10 in 6.0 mi East 10.4 mph - 0.05 in Rain Light Rain
10:52 PM 66.9 °F 64.0 °F 90% 30.09 in 6.0 mi ESE 10.4 mph - 0.06 in Rain Light Rain
11:52 PM 68.0 °F 64.9 °F 90% 30.08 in 5.0 mi ESE 8.1 mph - 0.03 in Rain Light Rain